This is the latest recevied weather packets stored in our database for station/object N5JXS. If no packets are shown the sender has not sent any weather packets the latest 10 day(s).
| Time | Temp. | Humidity | Pressure | Rain* | Wind** | Luminosity | Snow |
|---|---|---|---|---|---|---|---|
| 1788031274 | 25.56° C | 35% | 1026.6 hPa | 0 mm | - | 278 W/m² | - |
| 1788030973 | 25.56° C | 35% | 1026.6 hPa | 0 mm | - | 269 W/m² | - |
| 1788030667 | 25° C | 36% | 1026.6 hPa | 0 mm | - | 385 W/m² | - |
| 1788030362 | 25° C | 35% | 1026.8 hPa | 0 mm | - | 305 W/m² | - |
| 1788030058 | 25° C | 36% | 1027 hPa | 0 mm | - | 312 W/m² | - |
| 1788029752 | 25° C | 37% | 1027.1 hPa | 0 mm | - | 300 W/m² | - |
| 1788029447 | 25° C | 37% | 1027.1 hPa | 0 mm | - | 304 W/m² | - |
| 1788029146 | 24.44° C | 38% | 1027.1 hPa | 0 mm | - | 417 W/m² | - |
| 1788028846 | 24.44° C | 38% | 1027.2 hPa | 0 mm | - | 232 W/m² | - |
| 1788028546 | 24.44° C | 37% | 1027.3 hPa | 0 mm | - | 193 W/m² | - |
| 1788028241 | 24.44° C | 38% | 1027.5 hPa | 0 mm | - | 226 W/m² | - |
| 1788027937 | 24.44° C | 37% | 1027.3 hPa | 0 mm | - | 278 W/m² | - |
| 1788027632 | 24.44° C | 37% | 1027.6 hPa | 0 mm | - | 243 W/m² | - |
| 1788027332 | 24.44° C | 38% | 1027.8 hPa | 0 mm | - | 281 W/m² | - |
| 1788027026 | 23.89° C | 39% | 1027.6 hPa | 0 mm | - | 268 W/m² | - |
| 1788026726 | 23.89° C | 38% | 1028.1 hPa | 0 mm | - | 266 W/m² | - |
| 1788026422 | 23.33° C | 38% | 1027.6 hPa | 0 mm | - | 226 W/m² | - |
| 1788026117 | 23.33° C | 39% | 1027.8 hPa | 0 mm | - | 123 W/m² | - |
| 1788025815 | 23.33° C | 38% | 1027.5 hPa | 0 mm | - | 81 W/m² | - |
| 1788025514 | 23.33° C | 40% | 1027.5 hPa | 0 mm | - | 97 W/m² | - |
| 1788025209 | 23.33° C | 40% | 1027.5 hPa | 0 mm | - | 99 W/m² | - |
| 1788024905 | 23.33° C | 40% | 1027.5 hPa | 0 mm | - | 100 W/m² | - |
| 1788024600 | 23.33° C | 40% | 1027.7 hPa | 0 mm | - | 109 W/m² | - |
| 1788024295 | 23.89° C | 41% | 1027.6 hPa | 0 mm | - | 117 W/m² | - |
| 1788023990 | 23.89° C | 39% | 1027.8 hPa | 0 mm | - | 149 W/m² | - |
* Rain latest hour (hover to see other rain measurements)
** Current wind speed in m/s (hover to see current wind gust speed)